Huvudsida
METAR-TAF:

METAR-TAF

Flygplatser :

Lycksele flygplats

Lycksele, Sverige

latitud: 64-32-51N, longitud: 018-43-03E, höjd: 211 m

Aktuellt väderrapport

Denna rapport gjordes för 36 minuter sedan, klockan 22:20 UTC
Stilla vind
Temperatur -17°C
Fuktighet 84%
Tryck 1015 hPa
Sikt: 2300 m
lätt snö

METAR: ESNL 232220Z AUTO 00000KT 2300 -SN BKN012/// OVC019/// M17/M19 Q1015

Tid: 23:56 (22:56 UTC)


TAF: saknas

Aktuella väderrapporter och prognoser från 4000 flygplatser (METAR- och TAF-rapporter).

De tillgängliga stationerna syns som gula och röda prickar på kartan.

För musen över prickarna för att se namnen på stationerna.

Klicka sedan för att få väderrapporter och prognoser.

För att ändra kartan: Klicka på de gröna knapparna med ett svart kors på för att zooma in; den gröna knappen med ett streck på för att zooma ut; eller på de gröna pilarna för angränsande kartor.


METAR-TAF: